Location: The Downs
(51.2333°N, 1.4333°E)
Time: 02:57:51
(UTC+00:00)

Daily predictions for brighter satellites

Satellite Brightness Start Highest point End
(mag) Time Altitude Azimuth Time Altitude Azimuth Time Altitude Azimuth
Cosmos 1697 Rocket 4.3 02:34:59 30° ENE 02:34:59 30° ENE 02:39:12 10° ESE
Cosmos 2344 4.0 02:37:40 51° ESE 02:37:40 51° ESE 02:45:09 10° NE
ADEOS II 4.4 02:34:10 10° NNE 02:35:25 18° NNE 02:35:25 18° NNE
USA 238 DEB 4.4 02:41:03 46° E 02:41:03 46° E 02:46:34 10° NE
USA 238 4.4 02:41:08 46° E 02:41:08 46° E 02:46:39 10° NE
NOSS 3-2 (A) 4.4 02:44:26 43° ENE 02:44:26 43° ENE 02:49:12 10° NE
Cosmos 1980 Rocket 4.0 02:54:35 21° N 02:56:49 27° NE 03:01:33 10° E
SL-16 R/B 4.5 03:00:37 15° N 03:00:37 15° N 03:02:21 10° N
USA 234 3.4 02:53:43 10° ENE 02:59:22 69° ENE 02:59:22 69° ENE
ADEOS Rocket 3.7 02:58:06 10° SE 03:03:15 44° ENE 03:08:37 10° N
IDEFIX/ARIANE 42P 3.7 03:15:50 10° NNE 03:18:52 36° NNE 03:18:52 36° NNE
MSX 3.8 03:26:28 10° NNE 03:32:02 80° ENE 03:32:02 80° ENE
In-Cosmos 22 4.2 03:35:42 70° ESE 03:35:48 70° E 03:41:16 10° NNE
Cosmos 1833 Rocket 4.0 03:33:50 21° SSE 03:36:56 37° ESE 03:42:04 10° NE
Cosmos 2279 Rocket 3.9 03:30:54 10° N 03:43:01 12° S 03:43:19 10° S
CZ-4B R/B 3.9 03:34:50 10° ESE 03:37:08 22° ENE 03:37:08 22° ENE
NOSS 3-2 (C) 3.3 03:43:22 70° S 03:44:02 79° SE 03:50:44 10° NE
Cosmos 1536 Rocket 4.3 03:48:18 51° NNE 03:48:18 51° NNE 03:51:45 10° NNE
CENTAUR R/B 2.5 03:50:11 61° SSW 03:51:28 85° SE 03:58:47 10° NE
Cosmos 2369 3.7 03:49:30 40° NNW 03:51:39 77° ENE 03:57:18 10° SE
Cosmos 2082 Rocket 3.8 03:54:58 10° SSE 03:59:53 32° ESE 04:04:49 10° NE
SL-16 R/B 4.0 04:00:02 10° NNW 04:04:55 28° NE 04:09:47 10° E
PSLV R/B 3.6 04:00:48 10° NNE 04:05:06 75° ESE 04:05:31 68° SSE
CZ-2C R/B 2.4 04:01:44 10° NNE 04:06:47 80° ESE 04:08:51 35° S
ARIANE 5 R/B 3.9 04:03:07 10° N 04:05:38 25° NNW 04:05:38 25° NNW
ISS -1.9 04:09:06 27° SE 04:09:06 27° SE 04:11:32 10° E
Lacrosse 4 Rocket 1.3 04:18:22 68° N 04:18:22 68° N 04:22:06 10° NNE
ADEOS II 4.1 04:15:04 10° NNW 04:16:21 14° NNW 04:16:21 14° NNW
Cosmos 1697 Rocket 2.6 04:16:50 43° NW 04:18:35 63° WSW 04:24:09 10° SSE
COSMOS 2406 3.1 04:21:37 32° SSW 04:24:21 86° WNW 04:30:05 10° NNE
Lacrosse 5 rocket 1.6 04:25:46 47° S 04:26:16 51° SE 04:29:57 10° ENE
Meteor 2-5 Rocket 4.0 04:22:47 10° S 04:28:28 71° E 04:34:19 10° NNE
FENGYUN 3A 4.2 04:23:21 10° NNE 04:28:45 60° E 04:34:08 10° S
Cosmos 2360 Rocket 4.3 04:24:42 10° NNW 04:29:07 23° NE 04:33:31 10° E
USA 238 DEB 3.9 04:28:30 37° W 04:30:55 54° NW 04:37:49 10° NE
USA 238 3.9 04:28:35 37° W 04:31:01 55° NW 04:37:55 10° NE
PAYLOAD A 4.0 04:28:17 10° N 04:33:17 59° WNW 04:35:50 29° SW
NOSS 3-2 (A) 3.9 04:31:50 36° WNW 04:33:50 48° NNW 04:40:34 10° NE
Cosmos 1726 Rocket 3.5 04:33:56 10° N 04:38:26 88° E 04:42:53 10° S
SAR-Lupe-4 3.6 04:35:14 10° SSE 04:38:48 78° ENE 04:42:23 10° NNW
ATLAS 3B R/B 3.0 04:33:15 10° SSW 04:39:43 64° SE 04:46:20 10° NE
Cosmos 1025 Rocket 4.5 04:42:14 23° NW 04:42:14 23° NW 04:44:30 10° N
ERS-2 3.1 04:37:07 10° S 04:39:16 31° SSW 04:39:16 31° SSW
Cosmos 1980 Rocket 2.0 04:36:25 13° NNW 04:41:24 75° WSW 04:46:59 10° SSE
USA 234 3.5 04:36:44 10° ENE 04:43:06 57° N 04:46:42 27° WNW
Abrixas rocket 3.7 04:43:59 22° S 04:43:59 22° S 04:45:37 10° SE
Cosmos 2228 2.9 04:39:13 10° NNW 04:43:33 63° W 04:47:53 10° S
Meteor 2-13 Rocket 4.4 04:40:40 10° S 04:46:49 89° E 04:52:59 10° N
Cosmos 1092 Rocket 4.1 04:41:38 10° S 04:47:48 82° E 04:54:05 10° NNE
Geosat 4.2 04:43:18 10° S 04:48:08 48° WSW 04:51:08 22° NW
ADEOS Rocket 3.3 04:44:04 10° SSW 04:49:00 34° W 04:54:06 10° NNW
ADEOS 3.5 04:44:37 10° NNE 04:49:53 88° ESE 04:55:07 10° SSW
Cosmos 1269 Rocket 4.4 04:49:47 31° W 04:51:35 41° NW 04:56:38 10° NNE
CZ-3 R/B 4.5 04:35:59 13° WSW 04:51:44 25° SSW 04:59:18 10° SSE
Cosmos 2344 3.9 04:47:42 27° W 04:51:54 53° NNW 05:00:28 10° NE
Aureole 3 3.7 04:47:59 10° N 04:52:00 83° E 04:57:07 10° SSE
Nadezhda 4 Rocket 3.9 04:46:01 10° SSW 04:52:05 63° WNW 04:58:13 10° N
Cosmos 1606 Rocket 3.6 04:49:52 10° NNW 04:54:15 53° W 04:58:36 10° S
Cosmos 2219 Rocket 4.5 04:51:11 10° NNW 04:54:57 18° NNE 04:58:41 10° ENE
Cosmos 1400 Rocket 2.6 04:50:59 10° NNW 04:54:57 72° W 04:58:50 10° S
SJ-6F 4.4 04:51:32 10° N 04:55:36 62° WNW 04:59:39 10° SSW
CZ-4B R/B 4.0 04:51:20 10° NNE 04:55:36 78° ESE 04:59:38 10° S
SAR-Lupe-1 3.9 04:53:07 10° S 04:56:41 72° WSW 05:00:17 10° NNW
IDEFIX/ARIANE 42P 4.1 04:56:34 10° NNW 04:59:41 18° NW 04:59:41 18° NW
COSMO-SKYMED 1 2.5 05:02:38 10° S 05:06:59 79° WSW 05:11:22 10° NNW
Cosmos 1300 3.0 05:04:50 10° NNW 05:08:27 40° W 05:12:02 10° SSW
ARGOS Delta rocket 4.2 05:03:30 10° NNE 05:08:56 89° ESE 05:14:25 10° SSW
CZ-4B R/B 2.2 05:06:38 10° SSW 05:09:44 31° W 05:10:17 29° WNW
ALOS 2.2 05:06:58 10° N 05:11:36 61° WNW 05:16:12 10° SSW
Cosmos 2278 4.0 05:06:22 10° NW 05:11:45 45° WSW 05:17:04 10° S
Meteor 2-10 Rocket 3.6 05:08:05 10° N 05:13:08 79° ENE 05:18:13 10° SSE
Cosmos 2322 Rocket 2.8 05:07:45 10° NNW 05:13:24 57° NE 05:18:57 10° SE
Cosmos 1689 Rocket 2.0 05:13:26 10° S 05:16:19 56° WSW 05:19:13 10° NNW
Cosmos 1674 4.4 05:17:27 16° NW 05:17:27 16° NW 05:19:05 10° NNW
Cosmos 1626 2.8 05:14:34 17° SW 05:16:49 32° WNW 05:20:12 10° N
SL-14 R/B 3.7 05:13:12 10° SW 05:17:00 41° WNW 05:20:52 10° N
Meteor 2-8 Rocket 4.4 05:12:39 10° NNW 05:18:50 77° W 05:24:59 10° S
Cosmos 1833 Rocket 3.0 05:15:37 12° SW 05:20:45 48° NW 05:26:15 10° NNE
deb Chang Zheng 4 3.6 05:17:29 10° N 05:21:40 54° WNW 05:25:49 10° SSW
MOS 1 Rocket 4.1 05:18:10 10° SE 05:22:16 47° ENE 05:26:25 10° N
METEOR-M 4.1 05:19:17 10° N 05:24:35 64° WNW 05:29:51 10° SSW
Cosmos 2084 3.8 05:20:44 10° SSW 05:25:02 67° SE 05:29:26 10° NE
H-2A R/B 4.3 05:22:27 10° NNE 05:26:34 37° E 05:30:32 10° SSE
Cosmos 1315 Rocket 2.9 05:22:36 10° NNW 05:26:45 90° SSW 05:30:53 10° S
SJ-12 3.8 05:23:17 10° N 05:27:26 74° WNW 05:31:31 10° SSW
Cosmos 2058 Rocket 3.3 05:24:25 10° NNW 05:28:45 47° W 05:33:03 10° SSW
SL-19 R/B 3.6 05:26:12 10° N 05:28:58 50° WNW 05:31:44 10° SW
Elektron 1 3.7 05:27:53 10° SW 05:30:51 83° SE 05:33:58 10° NE
Cosmos 1484 Rocket 3.4 05:27:25 10° N 05:30:56 34° WNW 05:34:24 10° SW
Okean 1-7 Rocket 3.6 05:27:12 10° SSW 05:31:44 69° WNW 05:36:15 10° N
H-2A R/B 3.6 05:29:42 10° NNE 05:33:28 54° E 05:37:15 10° S
NOSS 3-2 (C) 4.2 05:30:50 15° W 05:35:34 39° NNW 05:42:10 10° NE
Cosmos 1553 Rocket 3.9 05:29:56 10° NNW 05:36:04 74° W 05:42:06 10° S
Cosmos 1428 Rocket 4.5 05:30:33 10° SSW 05:36:44 64° WNW 05:42:52 10° N
Cosmos 1461 3.4 05:34:27 10° WSW 05:38:57 51° NW 05:43:37 10° NE
Meteor PRIRODA 3.5 05:36:24 10° N 05:40:03 68° WNW 05:43:41 10° SSW
Meteor 1-24 Rocket 4.1 05:34:43 10° SW 05:40:10 46° WNW 05:45:50 10° N
Cosmos 1892 Rocket 3.9 05:36:14 10° SW 05:40:22 41° WNW 05:44:34 10° N
CREW DRAGON DEMO-1 DEB 3.9 05:40:30 15° W 05:42:31 31° SSW 05:45:13 10° SE
USA 290 3.0 05:39:58 10° WSW 05:42:54 31° WNW 05:45:52 10° N
CENTAUR R/B 3.4 05:37:23 13° W 05:42:57 40° NNW 05:50:09 10° NE
Cosmos 2082 Rocket 2.3 05:38:17 10° SW 05:43:45 53° NW 05:49:17 10° NNE
CZ-2C R/B 3.8 05:40:56 10° NNW 05:44:24 19° NW 05:47:48 10° W
ISS -3.7 05:42:03 12° WSW 05:45:08 83° SSE 05:48:31 10° E
Cosmos 614 Rocket 3.9 05:40:30 10° SSW 05:45:39 80° WNW 05:50:49 10° NNE
Cosmos 2026 Rocket 4.2 05:43:02 10° SSW 05:49:14 52° WNW 05:55:28 10° N
SL-16 R/B 2.2 05:43:54 10° NNW 05:49:35 73° WSW 05:55:14 10° SSE
Meteor 2-15 4.4 05:46:32 10° NNW 05:52:34 65° W 05:58:33 10° S
Cosmos 2251 Rocket 3.9 05:48:21 10° SW 05:53:26 42° WNW 05:58:31 10° NNE
SKYMED 2 4.5 05:51:32 10° SSW 05:55:17 28° W 05:59:04 10° NW
Meteor 1-31 Rocket 3.8 05:52:17 10° N 05:55:37 27° WNW 05:58:57 10° WSW
Cosmos 1455 2.3 05:52:53 10° NNW 05:56:42 55° W 06:00:29 10° S
Lacrosse 4 Rocket 3.1 05:54:45 10° WNW 05:57:24 17° NNW 06:00:05 10° N
COSMOS 2428 4.3 05:53:19 10° NNW 05:58:25 31° NE 06:03:29 10° ESE
[s.n.46727] 2.5 05:56:57 10° WSW 05:59:42 84° SSE 06:02:27 10° ENE
[s.n.46723] 2.6 05:56:58 10° WSW 05:59:47 84° SSE 06:02:36 10° ENE
Cosmos 2333 Rocket 3.6 05:54:31 10° NNW 05:59:48 37° NE 06:05:01 10° ESE
[s.n.46707] 2.5 05:57:07 10° WSW 05:59:53 84° SSE 06:02:38 10° ENE
[s.n.46708] 2.5 05:57:13 10° WSW 05:59:58 85° SSE 06:02:44 10° ENE
[s.n.46719] 2.5 05:57:18 10° WSW 06:00:03 85° SSE 06:02:49 10° ENE
[s.n.46724] 2.5 05:57:24 10° WSW 06:00:08 85° SSE 06:02:54 10° ENE
[s.n.46687] 2.5 05:57:29 10° WSW 06:00:14 85° SSE 06:03:00 10° ENE
[s.n.46696] 2.5 05:57:35 10° WSW 06:00:20 85° SSE 06:03:06 10° ENE
[s.n.46720] 2.5 05:57:40 10° WSW 06:00:25 85° SSE 06:03:11 10° ENE
[s.n.46676] 2.5 05:57:45 10° WSW 06:00:30 85° SSE 06:03:17 10° ENE
[s.n.46721] 2.5 05:57:51 10° WSW 06:00:36 85° SSE 06:03:22 10° ENE
[s.n.46728] 2.5 05:57:56 10° WSW 06:00:41 85° SSE 06:03:27 10° ENE
[s.n.46690] 2.5 05:58:02 10° WSW 06:00:47 85° SSE 06:03:33 10° ENE
YAOGAN 6 3.2 05:57:07 10° NNE 06:00:48 64° ESE 06:04:25 10° S
[s.n.46694] 2.5 05:58:06 10° WSW 06:00:50 85° SSE 06:03:37 10° ENE
Meteor 2-1 Rocket 4.4 05:55:21 10° NNW 06:00:51 55° W 06:06:27 10° S
[s.n.46702] 2.5 05:58:13 10° WSW 06:00:58 86° SSE 06:03:44 10° ENE
[s.n.46679] 2.5 05:58:17 10° WSW 06:01:02 86° SSE 06:03:48 10° ENE
[s.n.46704] 2.6 05:58:19 10° WSW 06:01:07 86° SSE 06:03:56 10° ENE
CZ-4B R/B 3.3 05:57:25 10° N 06:01:10 40° WNW 06:05:05 10° SW
[s.n.46712] 2.5 05:58:25 10° WSW 06:01:10 86° SSE 06:03:56 10° ENE
[s.n.46711] 2.5 05:58:34 10° WSW 06:01:19 86° SSE 06:04:05 10° ENE
[s.n.46684] 2.5 05:58:35 10° WSW 06:01:21 86° SSE 06:04:07 10° ENE
Cosmos 1697 Rocket 4.4 05:59:47 10° WNW 06:01:24 11° W 06:03:02 10° WSW
Spot 2 4.2 05:56:56 10° NNE 06:01:26 82° WNW 06:06:12 10° SSW
[s.n.46706] 2.5 05:58:44 10° WSW 06:01:30 86° SSE 06:04:16 10° ENE
[s.n.46678] 2.6 05:58:43 10° WSW 06:01:32 86° SSE 06:04:21 10° ENE
[s.n.46677] 2.5 05:58:53 10° WSW 06:01:38 86° SSE 06:04:24 10° ENE
[s.n.46671] 2.5 05:58:58 10° WSW 06:01:44 86° SSE 06:04:30 10° ENE
[s.n.46675] 2.5 05:59:04 10° WSW 06:01:48 86° S 06:04:35 10° ENE
[s.n.46674] 2.5 05:59:09 10° WSW 06:01:55 86° SSE 06:04:40 10° ENE
[s.n.46698] 2.5 05:59:15 10° WSW 06:02:00 87° SSE 06:04:46 10° ENE
[s.n.46699] 2.6 05:59:17 10° WSW 06:02:04 87° SSE 06:04:54 10° ENE
[s.n.46715] 2.5 05:59:26 10° WSW 06:02:11 87° SSE 06:04:57 10° ENE
[s.n.46714] 2.5 05:59:31 10° WSW 06:02:16 87° SSE 06:05:02 10° ENE
[s.n.46726] 2.5 05:59:37 10° WSW 06:02:21 87° S 06:05:08 10° ENE
[s.n.46703] 2.5 05:59:42 10° WSW 06:02:28 87° SSE 06:05:14 10° ENE
[s.n.46713] 2.5 05:59:47 10° WSW 06:02:33 87° SSE 06:05:20 10° ENE
[s.n.46717] 2.5 05:59:53 10° WSW 06:02:39 87° SSE 06:05:25 10° ENE
[s.n.46691] 2.6 05:59:55 10° WSW 06:02:43 87° SSE 06:05:32 10° ENE
[s.n.46693] 2.5 06:00:04 10° WSW 06:02:50 87° SSE 06:05:36 10° ENE
[s.n.46672] 2.5 06:00:10 10° WSW 06:02:55 87° SSE 06:05:41 10° ENE
[s.n.46701] 2.5 06:00:15 10° WSW 06:03:01 87° SSE 06:05:47 10° ENE
[s.n.46685] 2.5 06:00:20 10° WSW 06:03:06 88° SSE 06:05:52 10° ENE
[s.n.46709] 2.5 06:00:26 10° WSW 06:03:12 88° SSE 06:05:58 10° ENE
[s.n.46683] 2.5 06:00:31 10° WSW 06:03:16 88° SSE 06:06:02 10° ENE
[s.n.46695] 2.5 06:00:36 10° WSW 06:03:21 88° S 06:06:08 10° ENE
[s.n.46688] 2.5 06:00:43 10° WSW 06:03:29 88° SE 06:06:15 10° ENE
[s.n.46729] 2.5 06:00:47 10° WSW 06:03:33 88° SSE 06:06:19 10° ENE
[s.n.46697] 2.5 06:00:50 10° WSW 06:03:36 88° SSE 06:06:22 10° ENE
[s.n.46725] 2.5 06:00:55 10° WSW 06:03:41 88° SSE 06:06:27 10° ENE
[s.n.46682] 2.5 06:01:01 10° WSW 06:03:46 88° SSE 06:06:33 10° ENE
[s.n.46680] 2.5 06:01:07 10° WSW 06:03:52 88° SSE 06:06:38 10° ENE
[s.n.46718] 2.5 06:01:12 10° WSW 06:03:58 88° SSE 06:06:44 10° ENE
[s.n.46710] 2.5 06:01:17 10° WSW 06:04:04 88° SE 06:06:50 10° ENE
[s.n.46673] 2.5 06:01:28 10° WSW 06:04:14 88° SSW 06:07:01 10° ENE
Cosmos 1626 Rocket 3.6 05:59:51 10° SSW 06:04:17 64° WNW 06:08:45 10° N
[s.n.46700] 2.5 06:01:34 10° WSW 06:04:20 89° SSE 06:07:07 10° ENE
[s.n.46705] 2.5 06:01:40 10° WSW 06:04:25 89° S 06:07:12 10° ENE
[s.n.46692] 2.5 06:01:45 10° WSW 06:04:32 89° SSE 06:07:18 10° ENE
[s.n.46686] 2.5 06:01:51 10° WSW 06:04:37 89° SSE 06:07:23 10° ENE
[s.n.46716] 2.5 06:01:57 10° WSW 06:04:42 89° SSE 06:07:29 10° ENE
[s.n.46722] 2.5 06:02:02 10° WSW 06:04:48 89° SE 06:07:34 10° ENE
[s.n.46689] 2.5 06:02:08 10° WSW 06:04:53 89° S 06:07:40 10° ENE
[s.n.46681] 2.5 06:02:13 10° WSW 06:04:58 89° SSW 06:07:46 10° ENE
Lacrosse 5 rocket 1.6 06:01:52 10° W 06:05:27 45° NNW 06:09:14 10° ENE
Cosmos 2237 Rocket 4.3 06:01:52 10° NNW 06:05:56 20° NNE 06:09:58 10° E
Okean O Rocket 2.8 06:02:23 10° NNE 06:06:37 48° E 06:10:51 10° S
Cosmos-2242 3.5 06:02:19 10° N 06:06:42 69° ENE 06:11:03 10° SSE
Cosmos 1602 Rocket 3.6 06:02:51 10° SSW 06:07:17 78° W 06:11:48 10° N
Cosmos 1703 3.3 06:05:22 10° S 06:09:15 87° E 06:13:11 10° N
COSMOS 2406 4.4 06:05:02 10° W 06:09:31 23° NW 06:14:01 10° NNE
